[[{"header":{"parameterUnit":"m.s-1","parameterCategory":1,"la1":30.2991,"la2":30.254,"lo1":-89.0895,"lo2":-89.0444,"dy":0.0017,"dx":0.0017,"nx":28,"ny":28,"refTime":"2024-08-05T21:00:00:Z","depth":0,"parameterNumber":2,"parameterNumberName":"U-component_of_WINDS"},"data":[0,0,0,0,0,0,0,0,0,0,0,0,0,0,0,0,0,0,0,0,0,0,0,0,0,0,0,0,0,0,0,0,0,0,0,0,0,0,0,0,0,0,0,0,0,0,0,0,0,0,0,0,0,0,0,0,0,0,3.5136,3.5137,0,3.523,3.5231,3.5232,3.5192,3.519,3.5188,3.5186,3.529,3.5294,3.5299,0,0,0,0,0,0,0,0,0,0,0,0,0,3.4931,3.4935,3.5135,3.5137,3.5138,3.523,3.5231,3.5232,3.5193,3.519,3.5187,3.5185,3.5288,3.5294,3.53,0,0,0,0,0,0,0,0,0,0,0,0,0,3.5022,3.4936,3.5135,3.5129,3.5129,3.5229,3.5231,3.5233,3.5193,3.519,3.5186,3.5183,3.5286,3.5293,3.53,3.5414,0,0,3.5323,3.5326,0,0,0,0,0,0,0,0,3.5017,3.503,3.5129,3.513,3.513,3.5196,3.5197,3.5294,3.5194,3.5169,3.5186,3.5182,3.5262,3.5271,3.5296,3.5419,3.5424,3.5324,3.5328,3.5331,3.5333,0,0,0,0,0,0,0,3.5011,3.5025,3.5173,3.513,3.5131,3.5125,3.5134,3.5215,3.5234,3.5171,3.5168,3.518,3.5261,3.5289,3.5298,3.5425,3.5323,3.533,3.5334,3.5337,3.5654,3.5657,0,0,0,0,0,0,3.5003,3.502,3.517,3.5176,3.5064,3.5131,3.5141,3.5178,3.5233,3.5238,3.5183,3.5178,3.5278,3.529,3.5302,3.5443,3.5331,3.5338,3.5342,3.565,3.5654,3.5659,0,0,0,0,0,0,3.4999,3.5017,3.5166,3.5097,3.5116,3.5138,3.518,3.5182,3.521,3.5241,3.5245,3.5207,3.5276,3.5292,3.5388,3.5446,3.5341,3.5348,3.5645,3.5651,3.5657,3.5725,0,0,0,0,0,0,3.4993,3.5015,3.5056,3.5099,3.512,3.5248,3.5183,3.5186,3.5222,3.5216,3.5265,3.527,3.5275,3.5377,3.5395,3.5455,3.5354,3.564,3.5648,3.5655,3.5717,3.5732,3.5745,0,0,0,0,0,3.4986,3.5072,3.5059,3.5077,3.5171,3.5251,3.5263,3.5264,3.5226,3.527,3.5291,3.5269,3.5436,3.5387,3.5407,3.547,3.5636,3.5645,3.5654,3.5711,3.5729,3.5745,0,0,0,0,0,0,3.5037,3.5077,3.5063,3.5164,3.5205,3.5244,3.5298,3.5283,3.5336,3.5329,3.533,3.5342,3.5443,3.5465,3.541,3.5586,3.5531,3.5544,3.5568,3.5585,3.5599,3.5593,3.536,0,0,0,0,0,3.506,3.5119,3.5152,3.5239,3.5259,3.5276,3.531,3.5308,3.5351,3.5368,3.5396,3.544,3.5504,3.5545,3.5604,3.572,3.5733,3.5773,3.5787,3.5798,3.5811,3.588,3.5899,3.5688,3.5688,3.5688,0,0,3.5109,3.5138,3.5175,3.525,3.528,3.5346,3.529,3.536,3.5409,3.5379,3.5472,3.5495,3.5545,3.5653,3.5701,3.5675,3.5872,3.581,3.5818,3.5825,3.5891,3.5911,3.5929,3.5694,3.5693,3.5692,0,0,3.5231,3.5257,3.5334,3.5367,3.5414,3.5425,3.5444,3.5486,3.55,3.5593,3.5573,3.5634,3.5741,3.5779,3.5812,3.5954,3.5938,3.5973,3.6047,3.6113,3.613,3.6145,3.62,3.622,3.5985,3.5985,3.5985,0,3.5286,3.538,3.5377,3.5449,3.5485,3.546,3.5542,3.5574,3.5639,3.5666,3.5634,3.5772,3.5803,3.5922,3.5957,3.5983,3.6009,3.5969,3.6127,3.6142,3.6156,3.6209,3.6229,3.599,3.5989,3.5989,3.5988,0,3.5448,3.5514,3.5572,3.5635,3.5677,3.5753,3.5766,3.5809,3.5804,3.582,3.5919,3.5956,3.6025,3.6052,3.6047,3.6173,3.6155,3.6125,3.6071,3.6181,3.6231,3.6251,3.5996,3.5994,3.5993,3.5992,0,0,3.5605,3.5667,3.5689,3.5719,3.5771,3.5824,3.5902,3.5968,3.6008,3.6054,3.6123,3.6216,3.619,3.6228,3.6228,3.6287,3.6403,3.6251,3.6252,3.6282,3.6549,3.6574,3.6597,3.6391,3.6395,3.6398,3.6546,0,3.5734,3.5868,3.587,3.5995,3.6059,3.6038,3.6106,3.6148,3.6165,3.6225,3.6245,3.6313,3.6271,3.6295,3.6351,3.6377,3.6457,3.6365,3.646,3.6463,3.6451,3.6622,3.6647,3.6785,3.6565,3.6569,3.6571,0,3.5903,3.5955,3.6086,3.6133,3.616,3.6221,3.6285,3.6341,3.639,3.6399,3.6443,3.6436,3.652,3.6461,3.658,3.6518,3.6557,3.6575,3.6581,3.6592,3.6526,3.6643,3.6829,3.6851,3.6601,3.6598,3.6596,0,3.601,3.6113,3.6206,3.6232,3.6288,3.6333,3.6359,3.6403,3.6445,3.6501,3.6529,3.6595,3.6632,3.6685,3.6698,3.6652,3.6819,3.6759,3.6833,3.6834,3.6872,3.687,3.7071,3.689,3.689,3.689,3.6889,0,3.6156,3.6239,3.6256,3.6313,3.6407,3.6409,3.6503,3.6526,3.6567,3.6632,3.6617,3.6679,3.669,3.6756,3.6766,3.6867,3.6882,3.6896,3.6898,3.6899,3.6898,3.6927,3.692,3.6895,3.6894,3.6893,3.6892,0,3.6293,3.6306,3.6407,3.6452,3.6466,3.6534,3.6574,3.6632,3.6648,3.6731,3.6751,3.6778,3.6856,3.6873,3.6964,3.6971,3.7092,3.7083,3.7075,3.7076,3.7151,3.7145,3.7381,3.7414,3.7208,3.721,3.7211,0,3.6387,3.645,3.6503,3.6544,3.6572,3.6639,3.6682,3.6688,3.6734,3.6797,3.6848,3.6923,3.6984,3.7109,3.714,3.7211,3.7206,3.7284,3.7217,3.7218,3.7213,3.7211,3.722,3.7298,3.73,3.7302,3.7303,0,3.6554,3.6559,3.6619,3.6684,3.6735,3.6787,3.6836,3.6872,3.6885,3.6938,3.7016,3.7063,3.7158,3.7235,3.7307,3.7338,3.7326,3.7324,3.7346,3.7349,3.7344,3.7353,3.7115,3.7319,3.7318,3.7316,3.7316,3.7315,3.6676,3.6733,3.678,3.685,3.6887,3.6934,3.6992,3.7016,3.7081,3.7157,3.7158,3.7245,3.7297,3.7393,3.7428,3.7499,3.7475,3.7505,3.7514,3.7522,3.7531,3.733,3.7511,3.7511,3.7511,3.751,3.751,0,3.6847,3.6876,3.694,3.701,3.7066,3.7046,3.7101,3.7151,3.7226,3.7275,3.7335,3.7428,3.7504,3.7541,3.7617,3.7667,3.7663,3.7687,3.7685,3.7694,3.7546,3.7521,3.7689,3.7689,3.7689,3.7689,3.7689,3.7689,3.6942,3.704,3.7051,3.7168,3.7198,3.7282,3.7316,3.7361,3.74,3.7504,3.7566,3.7589,3.7635,3.7715,3.7785,3.7794,3.7825,3.7853,3.786,3.7721,3.7703,3.7686,3.7664,3.7858,3.7858,3.8003,3.8004,3.8005]},{"header":{"parameterUnit":"m.s-1","parameterCategory":1,"la1":30.2991,"la2":30.254,"lo1":-89.0895,"lo2":-89.0444,"dy":0.0017,"dx":0.0017,"nx":28,"ny":28,"refTime":"2024-08-05T21:00:00:Z","depth":0,"parameterNumber":3,"parameterNumberName":"V-component_of_WINDS"},"data":[0,0,0,0,0,0,0,0,0,0,0,0,0,0,0,0,0,0,0,0,0,0,0,0,0,0,0,0,0,0,0,0,0,0,0,0,0,0,0,0,0,0,0,0,0,0,0,0,0,0,0,0,0,0,0,0,0,0,0.8833,0.8835,0,0.9034,0.9037,0.9039,0.9005,0.9001,0.8998,0.8994,0.9206,0.9214,0.9223,0,0,0,0,0,0,0,0,0,0,0,0,0,0.8422,0.843,0.8833,0.8835,0.8838,0.9034,0.9037,0.904,0.9005,0.9001,0.8997,0.8993,0.9203,0.9213,0.9224,0,0,0,0,0,0,0,0,0,0,0,0,0,0.861,0.8432,0.8832,0.8844,0.8847,0.9033,0.9037,0.904,0.9006,0.9001,0.8996,0.8991,0.9199,0.9212,0.9226,0.9414,0,0,0.9266,0.9272,0,0,0,0,0,0,0,0,0.8599,0.8625,0.884,0.8844,0.8847,0.8989,0.8969,0.9166,0.9007,0.8946,0.8994,0.8988,0.9138,0.9156,0.9206,0.9424,0.9433,0.9268,0.9276,0.9282,0.9285,0,0,0,0,0,0,0,0.8586,0.8616,0.8913,0.8843,0.8848,0.8841,0.8861,0.9007,0.907,0.8951,0.8949,0.8973,0.9139,0.9193,0.9211,0.9436,0.9267,0.9279,0.9287,0.9293,0.9818,0.9823,0,0,0,0,0,0,0.8569,0.8605,0.8906,0.8919,0.8708,0.8852,0.8876,0.8949,0.9068,0.9081,0.8977,0.8971,0.9173,0.9195,0.9218,0.9445,0.9281,0.9294,0.9302,0.9812,0.9819,0.9825,0,0,0,0,0,0,0.856,0.8596,0.8898,0.8762,0.8799,0.8865,0.8948,0.8956,0.9009,0.9088,0.9099,0.902,0.917,0.9199,0.9365,0.9452,0.93,0.9312,0.9805,0.9814,0.9822,0.9903,0,0,0,0,0,0,0.8549,0.8593,0.8665,0.8763,0.8807,0.9041,0.8953,0.8963,0.9032,0.9025,0.9131,0.9144,0.9168,0.9345,0.9378,0.9468,0.9323,0.9797,0.9809,0.9819,0.9892,0.9913,0.9931,0,0,0,0,0,0.8534,0.8681,0.8669,0.8705,0.8898,0.9046,0.9071,0.9094,0.9039,0.9112,0.9162,0.914,0.9437,0.9362,0.9399,0.9495,0.9792,0.9806,0.9818,0.9884,0.9909,0.993,0,0,0,0,0,0,0.8594,0.8694,0.8682,0.8865,0.8947,0.904,0.9133,0.912,0.9221,0.9211,0.9237,0.9261,0.9429,0.9478,0.9393,0.9682,0.9607,0.9628,0.9644,0.9669,0.9687,0.9672,0.9334,0,0,0,0,0,0.8628,0.8738,0.8821,0.8974,0.9016,0.9067,0.9133,0.9143,0.923,0.9265,0.9328,0.9414,0.9526,0.96,0.9708,0.9899,0.9921,0.9983,1.0002,1.0017,1.0035,1.0139,1.0167,0.9869,0.9869,0.9869,0,0,0.87,0.8769,0.8837,0.8988,0.9053,0.9168,0.9097,0.9222,0.9308,0.9285,0.9444,0.9493,0.9591,0.977,0.9852,0.9816,1.0122,1.0034,1.0046,1.0056,1.0155,1.0183,1.0208,0.9878,0.9876,0.9875,0,0,0.889,0.8953,0.9087,0.9153,0.9251,0.9284,0.9316,0.9411,0.9441,0.9601,0.9586,0.9689,0.9883,0.9952,1.0013,1.0228,1.0211,1.0262,1.0363,1.0463,1.0486,1.0507,1.0583,1.061,1.028,1.028,1.0281,0,0.8968,0.9139,0.9158,0.9284,0.9351,0.9333,0.9469,0.9532,0.9662,0.9708,0.9666,0.9907,0.9972,1.0166,1.0218,1.0268,1.0306,1.0251,1.0481,1.0502,1.0522,1.0594,1.0623,1.0286,1.0285,1.0285,1.0284,0,0.923,0.9349,0.9445,0.9568,0.9645,0.9776,0.9815,0.9892,0.9895,0.9932,1.0095,1.0172,1.0294,1.0341,1.0347,1.0536,1.051,1.0475,1.0399,1.0556,1.0624,1.0652,1.0294,1.0292,1.029,1.0289,0,0,0.9465,0.9594,0.9629,0.9683,0.9789,0.9882,1.0012,1.0129,1.0194,1.0284,1.0393,1.0556,1.0523,1.0592,1.0605,1.0693,1.0856,1.0646,1.0649,1.0682,1.1068,1.1094,1.1126,1.0845,1.0851,1.0855,1.106,0,0.9664,0.9891,0.9911,1.0115,1.0225,1.0208,1.0321,1.0399,1.0437,1.0536,1.0579,1.0693,1.0641,1.0682,1.0769,1.0818,1.0934,1.0804,1.0948,1.0953,1.0923,1.1162,1.119,1.1379,1.1087,1.1091,1.1094,0,0.9928,1.0022,1.0236,1.0325,1.0372,1.0472,1.0581,1.0676,1.0763,1.0785,1.0861,1.0861,1.0995,1.0914,1.1099,1.1009,1.1069,1.1102,1.111,1.1125,1.1033,1.1182,1.1441,1.1469,1.1137,1.1134,1.113,0,1.0076,1.0257,1.0408,1.0455,1.0563,1.0634,1.0682,1.0764,1.0833,1.0928,1.0973,1.1084,1.1144,1.123,1.126,1.1198,1.1443,1.1365,1.1465,1.1464,1.1517,1.1514,1.1788,1.1557,1.1556,1.1556,1.1555,0,1.0297,1.0429,1.0476,1.0569,1.0716,1.0738,1.0883,1.0928,1.1,1.1102,1.1096,1.1192,1.1226,1.1328,1.1352,1.1501,1.1529,1.155,1.1555,1.155,1.1547,1.159,1.1578,1.1563,1.1562,1.156,1.1559,0,1.0488,1.0525,1.0688,1.0776,1.08,1.0905,1.098,1.107,1.1105,1.1234,1.1266,1.1323,1.1442,1.148,1.1625,1.1641,1.1814,1.1808,1.1784,1.1785,1.1882,1.1872,1.2194,1.2237,1.1977,1.198,1.1982,0,1.0626,1.0727,1.0824,1.089,1.094,1.1049,1.1118,1.1143,1.1216,1.1321,1.1399,1.1516,1.1612,1.1803,1.1858,1.1968,1.1964,1.2069,1.1981,1.1973,1.1965,1.1958,1.1968,1.2086,1.2089,1.2091,1.2093,0,1.0867,1.088,1.0979,1.1084,1.1167,1.1252,1.1334,1.1389,1.1426,1.1508,1.1629,1.1702,1.1849,1.1966,1.2077,1.2128,1.2117,1.212,1.2149,1.2145,1.2127,1.2137,1.1829,1.2112,1.2111,1.2109,1.2108,1.2107,1.1036,1.1123,1.1205,1.1315,1.1379,1.1455,1.1543,1.1588,1.1689,1.1808,1.1817,1.1948,1.2031,1.218,1.2236,1.2339,1.2309,1.2351,1.2361,1.2371,1.2378,1.211,1.2359,1.2359,1.2358,1.2358,1.2358,0,1.1276,1.1326,1.1427,1.1541,1.1627,1.1607,1.1696,1.177,1.1884,1.1963,1.2056,1.2194,1.2306,1.2369,1.2481,1.2551,1.2549,1.258,1.2575,1.2587,1.2399,1.2363,1.258,1.258,1.258,1.258,1.258,1.258,1.1411,1.1557,1.1579,1.1757,1.1808,1.1934,1.1986,1.2056,1.2118,1.2272,1.2365,1.2404,1.2476,1.2593,1.2695,1.2711,1.2752,1.2787,1.2799,1.2623,1.26,1.2578,1.2544,1.2796,1.2796,1.2978,1.2979,1.2981]}]]